Zurück zum Katalog

METEOR 2-8 DEB

AktivPO
NORAD 36340·DEBRIS·🇷🇺 Russia

Gestartet Mar 25, 1982 von Plesetsk Cosmodrome

Loading…

Nächste Überflüge (nächste 24 Stunden)

TLE

AktuellSource: Space-Track

Epoche: Sep 12, 2026, 13:11 UTC

1 36340U 82025AA  26255.54986923  .00005734  00000-0  12984-2 0  9994
2 36340  82.5147 344.8452 0016694 102.8748 257.4318 14.55948192676323

Verfolge METEOR 2-8 DEB in Echtzeit mit AllMySat

Download on the App Store